Weather in Bandung

Indonesia     6°56′54″S   107°39′13″E
temp.,
°C
wind,
m/s
gust,
m/s
humid.,
%
clouds,
%
prec.,
mm/h
press.,
hPa
HPBL,
m
20 june, sun
sun2001:00+19sse119499 4.1 101317
04:00+18sw1193100 0.0 101312
07:00+19sse1190100 0.0 101445
10:00+25ene116988 0.1 1013719
13:00+25ne1168100 2.8 1012991
16:00+23nne117799 2.8 1011746
19:00+19e0093100 5.3 101411
22:00+19sw009482 0.5 101511
21 june, mon
mon2101:00+18sw119542 0.5 101411
04:00+18ssw119410 0.0 101313
07:00+19sse119110 0.0 101458
10:00+25e01675 0.0 1014794
13:00+27n335546 0.4 10111738
16:00+23nne117993 3.0 1011464
19:00+19s1192100 6.4 101412
22:00+19se119264 1.0 101512
22 june, tue
tue2201:00+18ese119332 1.0 101416
04:00+17s119350 0.0 101313
07:00+18s1189100 0.0 101549
10:00+24s116631 0.0 1014641
13:00+27ne225226 0.3 10111601
16:00+24nne237339 1.7 1011305
19:00+20ese2290100 2.6 101421
22:00+19sse229652 0.0 101535
23 june, wed
wed2301:00+18se119657 0.0 101429
04:00+17sse219483 0.0 101325
07:00+18sse128669 0.0 101561
10:00+25ene11588 0.0 1014912
13:00+27ne2253100 0.1 10111624
16:00+22ene2385100 1.9 1012266
19:00+20e119390 3.5 101412
22:00+19sse119775 0.0 101516
24 june, thu
thu2401:00+18sse119688 0.0 101317
04:00+17sse1194100 0.0 101319
07:00+19sse1191100 0.0 101460
10:00+24e127376 0.1 1014662
13:00+25ne2271100 2.3 10111010
16:00+23ene228155 3.3 1010563
19:00+19ese1196100 6.0 101316
22:00+19se1197100 0.0 101422